Snowfall_Accumulation
0.6 1.0 1.2 1.1 1.1 0.5 0.6 0.9 0.6 0.6 0.3 0.1 0.1 0.1 0.1 0.1 0.1 0.1 0.2 0.2 0.3 0.2 0.3 0.2 0.2 0.2 0.2 0.1 0.1 0.2 0.2 0.4 0.6 0.2 0.1 0.1 0.1 0.1 0.0 0.0 0.0 0.0 0.0
0.6 0.6 0.9 1.2 1.0 1.2 0.9 0.9 0.8 0.7 0.6 0.4 0.1 0.1 0.1 0.1 0.2 0.1 0.2 0.2 0.2 0.2 0.2 0.2 0.3 0.3 0.2 0.3 0.2 0.3 0.3 0.4 1.1 1.1 0.4 0.2 0.3 0.2 0.2 0.1 0.0 0.0 0.0
0.7 0.7 0.7 1.0 1.1 1.1 1.1 1.0 0.9 0.9 0.9 0.6 0.6 0.5 0.4 0.2 0.2 0.2 0.4 0.2 0.2 0.1 0.2 0.2 0.3 0.3 0.5 0.4 0.6 0.4 0.5 0.6 0.9 1.3 0.7 0.2 0.2 0.1 0.2 0.1 0.1 0.0 0.0
0.7 0.7 0.7 0.7 0.8 0.9 0.9 0.9 0.9 0.8 0.9 0.9 0.7 0.7 0.6 0.5 0.4 0.3 0.5 0.6 0.4 0.5 0.4 0.5 0.7 0.7 0.8 0.7 0.9 0.8 1.1 1.2 1.3 1.7 1.8 1.2 0.9 0.5 0.5 0.4 0.3 0.2 0.1
0.9 0.8 0.7 0.5 0.6 0.6 0.7 0.7 0.6 0.7 0.6 0.7 0.8 0.7 0.7 0.6 0.6 0.7 1.0 1.0 1.0 0.9 0.8 0.6 0.5 0.4 0.4 0.6 1.1 1.4 1.8 2.4 3.0 3.3 2.9 2.0 1.2 1.1 1.1 0.9 1.1 0.5 0.4
1.2 1.1 0.8 0.5 0.5 0.4 0.6 0.6 0.4 0.5 0.5 0.6 0.6 0.8 0.8 0.7 0.5 0.9 1.1 1.1 1.0 1.0 0.8 0.9 0.5 0.6 0.5 0.6 0.9 1.3 2.4 4.0 5.0 5.2 4.6 3.2 1.8 1.3 1.2 1.6 2.1 2.8 2.2
1.6 1.6 1.0 0.8 0.7 0.4 0.6 0.5 0.6 0.5 0.6 0.6 0.6 0.8 0.9 0.6 0.5 0.7 1.0 1.2 1.4 1.2 1.3 1.1 0.9 0.8 0.7 0.7 0.8 1.2 1.7 2.3 3.2 4.0 4.0 2.5 1.8 1.6 2.9 4.2 4.3 4.6 3.5
2.2 1.8 1.6 1.3 1.0 1.0 0.9 1.0 0.9 0.9 0.8 0.8 1.0 0.9 0.9 0.5 0.4 0.5 0.8 1.3 1.3 1.3 1.1 0.9 1.0 0.8 0.7 1.2 1.9 2.3 1.4 0.9 0.9 1.1 1.5 1.5 1.5 1.8 3.6 6.1 6.0 4.6 2.3
2.3 2.5 2.3 2.2 2.1 1.3 1.3 1.2 0.9 1.0 0.9 0.8 1.1 1.1 1.0 0.9 0.3 0.6 1.0 1.3 1.3 1.1 0.8 0.8 1.1 0.9 1.0 2.3 3.8 3.6 1.8 0.7 0.3 0.8 1.2 1.4 1.3 1.4 2.0 5.4 7.2 7.6 5.5
2.9 2.9 2.8 2.5 2.7 2.3 1.5 1.4 1.3 1.3 1.4 1.4 1.4 1.1 0.9 1.0 0.7 0.4 1.2 1.6 1.7 1.5 0.9 0.9 0.9 1.1 1.7 3.1 4.0 3.9 2.9 1.3 1.4 1.1 0.8 0.5 0.6 0.6 1.0 3.7 8.4 13.3 10.5
3.1 2.5 2.6 2.7 3.2 2.9 2.1 1.8 2.3 1.7 1.8 1.8 1.7 1.5 1.2 0.8 0.4 0.4 0.8 1.8 2.7 2.7 1.7 1.3 0.6 1.4 2.5 3.0 3.2 2.6 2.8 3.3 2.8 1.9 1.4 1.3 1.2 1.2 1.1 1.9 4.5 12.2 16.5
3.3 3.0 3.1 3.3 3.4 2.9 2.7 2.8 3.0 2.8 2.5 2.2 2.1 1.9 1.5 0.8 0.4 0.6 1.0 1.8 2.6 3.3 2.5 1.4 1.2 2.1 2.5 2.3 2.0 1.9 2.4 2.5 2.4 2.6 2.4 2.2 2.4 2.6 2.8 3.0 4.0 6.2 9.5
3.4 3.4 3.1 3.4 3.4 3.6 2.9 3.1 2.7 2.6 2.5 2.4 2.2 2.1 1.6 1.1 0.8 0.8 1.0 1.8 2.2 2.4 1.9 2.0 2.2 2.0 2.0 1.9 1.5 1.9 2.3 2.8 3.6 4.7 4.2 3.2 3.3 3.8 4.0 4.9 5.1 5.3 6.0
4.1 4.4 4.1 3.8 4.1 3.6 3.5 3.2 3.2 3.4 3.2 3.0 2.4 2.3 2.1 1.6 1.5 1.5 1.8 1.8 2.0 2.4 2.4 2.1 1.9 1.4 1.6 1.9 1.9 2.2 2.4 3.3 5.4 6.9 6.1 4.7 4.4 5.3 6.9 8.4 9.9 10.4 12.3
3.8 4.2 4.2 4.3 4.5 4.4 4.1 4.1 4.4 4.7 4.4 4.9 4.6 3.5 3.7 3.2 2.4 3.2 3.9 3.7 3.8 3.5 3.4 2.7 2.6 2.5 2.6 2.7 2.5 2.6 2.9 3.4 5.3 6.5 7.3 8.0 7.9 9.0 10.7 12.5 14.1 14.1 14.1
3.6 3.7 4.1 4.3 4.2 4.5 4.7 4.8 4.1 4.1 4.1 3.6 3.5 3.9 3.8 3.3 3.3 3.6 3.5 3.8 3.6 3.5 3.8 4.2 3.7 3.4 3.6 3.5 3.7 3.6 3.6 4.8 6.4 8.3 9.5 10.7 12.6 13.4 13.6 13.4 14.2 14.8 13.8
3.9 4.2 4.4 4.2 4.5 4.8 5.0 5.3 4.9 4.3 3.0 3.2 3.1 3.0 3.4 2.9 3.1 3.2 3.2 3.4 2.9 3.0 4.4 4.5 3.9 4.2 4.4 4.7 4.9 5.8 5.4 5.7 7.6 10.3 12.7 14.6 15.4 15.7 15.5 14.9 13.7 12.8 11.3
3.1 3.5 3.8 3.9 4.1 4.3 4.6 5.0 5.1 5.0 4.2 3.6 3.2 3.5 3.1 3.1 3.2 2.9 3.1 3.0 3.0 2.9 4.5 5.8 5.8 5.3 5.5 6.2 6.7 7.7 8.5 9.0 10.1 12.8 14.4 15.7 17.0 17.8 16.3 14.0 12.0 11.2 10.4
2.6 2.9 3.1 3.4 3.7 4.1 4.3 4.6 4.8 4.8 4.8 4.8 4.2 4.2 3.8 2.7 2.7 3.0 2.8 3.9 4.7 5.1 6.2 7.0 7.1 6.9 6.3 7.4 8.4 9.8 11.5 13.2 13.8 15.9 16.7 17.1 17.6 17.9 15.1 11.4 9.9 8.6 9.1
2.5 2.8 3.2 3.2 3.3 3.7 3.9 4.5 4.9 5.1 5.2 4.8 4.8 5.1 4.7 3.8 4.7 4.1 3.7 4.4 5.0 5.4 5.7 6.3 6.8 7.1 7.4 8.9 10.1 11.5 13.1 14.0 15.3 16.4 17.3 17.0 16.0 15.0 13.2 10.0 9.0 9.3 8.8
2.7 2.5 2.8 2.8 3.1 3.4 3.8 4.4 4.8 5.0 5.0 5.0 5.4 5.5 5.6 6.5 6.0 5.2 5.3 5.0 5.5 5.7 5.9 6.7 7.7 8.0 8.8 10.1 11.9 13.1 13.7 14.5 16.0 17.4 17.3 15.9 14.0 11.9 9.5 9.1 9.1 9.2 9.2
3.0 3.1 3.2 3.2 3.4 3.8 4.0 4.3 4.6 4.9 4.9 4.8 4.7 4.8 4.7 5.4 5.2 5.3 5.6 5.2 5.1 5.4 5.8 6.7 7.2 7.8 10.2 13.5 15.7 16.7 15.8 14.7 14.9 16.0 15.5 13.4 11.3 10.2 9.6 9.6 9.3 9.6 9.8
3.1 3.4 3.4 3.5 3.5 4.0 4.4 4.2 4.5 4.7 4.6 4.7 4.8 4.8 4.8 5.0 5.2 5.3 5.4 5.4 4.9 5.0 5.2 5.9 6.9 7.5 8.7 12.5 16.3 20.2 21.7 18.9 17.1 17.4 17.7 15.2 12.5 11.3 11.1 11.2 10.5 10.1 9.4
3.2 3.2 3.4 3.5 3.7 4.1 4.3 4.2 4.1 4.4 4.6 4.7 4.7 4.9 5.2 5.1 5.0 4.9 5.0 5.0 5.1 4.6 4.7 5.5 6.4 7.4 8.9 12.1 15.0 17.0 18.8 20.0 20.9 20.3 19.2 18.1 14.8 12.3 11.8 11.2 10.4 9.8 9.8
3.3 3.5 3.8 3.8 4.0 4.1 4.3 4.4 4.3 4.3 4.5 4.6 4.8 4.9 4.9 4.9 4.8 4.6 4.6 4.8 4.9 4.6 4.4 5.0 6.1 7.8 9.6 12.0 14.3 16.0 16.5 17.0 16.8 16.9 16.7 15.7 13.4 11.4 11.3 11.3 10.1 9.6 9.5
3.9 4.2 4.2 4.3 4.4 4.6 4.6 4.7 4.6 4.6 4.7 4.7 4.8 4.9 5.0 5.1 4.8 4.8 4.8 4.9 5.1 4.8 4.7 4.5 5.1 7.2 9.5 11.9 13.5 15.3 15.5 13.8 11.7 10.8 12.7 14.1 12.6 10.8 10.5 11.3 10.3 10.0 9.8